Chuuk International Airport


Codes: PTKK/TKK
Name: Chuuk International Airport
City: Weno Island
Country: Micronesia
Elevation: 11 ft.
Wikipedia:

Photos at Chuuk International Airport


   Photos courtesy of SpottingLog. You can add your own sightings and photos by signing up for a free trial today.



No photos found.

Weather at Chuuk International Airport


Time (UTC)DescriptionTempratureWindCloud coverageVisibilityPressureHumidity
15-Apr-2024 18:00Moderate Rain27°C11 mph, E75%10000m1009hPa74%
15-Apr-2024 21:00Moderate Rain27°C11 mph, NE83%10000m1010hPa77%
16-Apr-2024 00:00Moderate Rain28°C11 mph, E92%10000m1010hPa80%
16-Apr-2024 03:00Light Rain27°C16 mph, E100%10000m1009hPa84%
16-Apr-2024 06:00Overcast Clouds28°C11 mph, E100%10000m1008hPa81%
16-Apr-2024 09:00Light Rain28°C9 mph, E100%10000m1009hPa80%
16-Apr-2024 12:00Light Rain28°C9 mph, E100%10000m1010hPa80%
16-Apr-2024 15:00Light Rain28°C9 mph, NE100%10000m1008hPa81%
16-Apr-2024 18:00Light Rain28°C7 mph, E100%10000m1008hPa79%
16-Apr-2024 21:00Light Rain28°C7 mph, E100%10000m1010hPa80%
17-Apr-2024 00:00Light Rain28°C7 mph, E99%10000m1010hPa77%
17-Apr-2024 03:00Light Rain28°C9 mph, E86%10000m1008hPa75%
17-Apr-2024 06:00Overcast Clouds29°C9 mph, E85%10000m1007hPa74%
17-Apr-2024 09:00Overcast Clouds29°C9 mph, E98%10000m1009hPa76%
17-Apr-2024 12:00Light Rain28°C11 mph, E99%10000m1010hPa78%
17-Apr-2024 15:00Light Rain28°C11 mph, E100%10000m1008hPa79%
17-Apr-2024 18:00Overcast Clouds28°C11 mph, E93%10000m1008hPa78%
17-Apr-2024 21:00Broken Clouds28°C13 mph, E61%10000m1009hPa78%
18-Apr-2024 00:00Light Rain28°C16 mph, E67%10000m1010hPa80%
18-Apr-2024 03:00Light Rain28°C16 mph, E54%10000m1008hPa77%
18-Apr-2024 06:00Light Rain29°C16 mph, E75%10000m1007hPa76%
18-Apr-2024 09:00Broken Clouds29°C13 mph, E81%10000m1009hPa76%
18-Apr-2024 12:00Broken Clouds29°C13 mph, E69%10000m1010hPa78%
18-Apr-2024 15:00Light Rain28°C13 mph, NE38%10000m1008hPa79%
18-Apr-2024 18:00Light Rain28°C13 mph, NE31%10000m1008hPa80%
18-Apr-2024 21:00Light Rain28°C16 mph, NE59%10000m1010hPa82%
19-Apr-2024 00:00Light Rain28°C18 mph, E79%10000m1010hPa82%
19-Apr-2024 03:00Light Rain28°C16 mph, E100%10000m1008hPa82%
19-Apr-2024 06:00Light Rain28°C16 mph, E100%10000m1008hPa82%
19-Apr-2024 09:00Light Rain28°C16 mph, E100%10000m1010hPa82%
19-Apr-2024 12:00Light Rain28°C16 mph, E100%10000m1011hPa82%
19-Apr-2024 15:00Light Rain28°C16 mph, E97%10000m1009hPa82%
19-Apr-2024 18:00Light Rain28°C16 mph, E96%10000m1009hPa82%
19-Apr-2024 21:00Light Rain28°C13 mph, E92%10000m1010hPa82%
20-Apr-2024 00:00Moderate Rain28°C13 mph, E96%10000m1011hPa82%
20-Apr-2024 03:00Moderate Rain28°C13 mph, E98%8744m1008hPa81%
20-Apr-2024 06:00Light Rain28°C13 mph, E99%10000m1008hPa77%
20-Apr-2024 09:00Moderate Rain28°C13 mph, E100%7462m1010hPa79%
20-Apr-2024 12:00Light Rain28°C13 mph, E100%6942m1011hPa81%
20-Apr-2024 15:00Moderate Rain27°C13 mph, E100%10000m1010hPa85%